Vancouver, WA

12:48 AM PDT on May 27, 2017 (GMT -0700)
Pearson

Weather History for KVUO - May, 2013

Change the Weather History Date:

Saturday, May 4, 2013

  Actual Average Record
Temperature  
Mean Temperature 65 °F 56 °F  
Max Temperature 84 °F 66 °F 88 °F (1992)
Min Temperature 46 °F 45 °F 33 °F (1982)
Degree Days  
Heating Degree Days 0    
Month to date heating degree days 20  
Since 1 July heating degree days 3976  
Cooling Degree Days 0    
Month to date cooling degree days 0  
Year to date cooling degree days 0  
Growing Degree Days 16 (Base 50)    
Moisture  
Dew Point 37 °F    
Average Humidity 43    
Maximum Humidity 71    
Minimum Humidity 14    
Precipitation  
Precipitation 0.00 in 0.10 in 1.13 in (1926)
Month to date precipitation 0.00 0.37  
Year to date precipitation 8.34 16.48  
Snow  
Snow 0.00 in - - ()
Month to date snowfall 0.0  
Snow Depth 0.00 in    
Sea Level Pressure  
Sea Level Pressure 30.03 in    
Wind  
Wind Speed 7 mph (NE)    
Max Wind Speed 20 mph    
Max Gust Speed 28 mph    
Visibility 10 miles    
Events      
T = Trace of Precipitation, MM = Missing Value Source: NWS Daily Summary

Daily Weather History Graph

Daily Weather History Graph

Search for Another Location

Airport or City:

Trip Planner

Search our weather history database for the weather conditions in past years. The results will help you decide how hot, cold, wet, or windy it might be!

Date:

Astronomy

May. 04, 2013 Rise Set
Actual Time 5:53 AM PDT 8:22 PM PDT
Civil Twilight 5:20 AM PDT 8:55 PM PDT
Nautical Twilight 4:38 AM PDT 9:37 PM PDT
Astronomical Twilight 3:51 AM PDT 10:24 PM PDT
Moon 3:10 AM PDT (5/4) 3:11 PM PDT (5/4)
Length of Visible Light 15h 35m
Length of Day
14h 28m
Waning Crescent, 26% of the Moon is Illuminated
May 4
Waning Crescent
May 9
New
May 17
First Quarter
May 24
Full
May 31
Last Quarter

Hourly Weather History & Observations

Time (PDT) Temp. Dew Point Humidity Pressure Visibility Wind Dir Wind Speed Gust Speed Precip Events Conditions
12:53 AM 59.0 °F 39.0 °F 48% 30.14 in 10.0 mi Calm Calm - N/A   Clear
1:53 AM 55.9 °F 39.9 °F 55% 30.14 in 10.0 mi Calm Calm - N/A   Clear
2:53 AM 50.0 °F 41.0 °F 71% 30.13 in 10.0 mi Calm Calm - N/A   Clear
3:53 AM 51.1 °F 41.0 °F 68% 30.13 in 10.0 mi Calm Calm - N/A   Clear
4:53 AM 48.9 °F 39.9 °F 71% 30.13 in 10.0 mi Calm Calm - N/A   Clear
5:53 AM 52.0 °F 41.0 °F 66% 30.13 in 10.0 mi Calm Calm - N/A   Clear
6:53 AM 53.1 °F 43.0 °F 69% 30.14 in 10.0 mi Calm Calm - N/A   Clear
7:53 AM 57.9 °F 44.1 °F 60% 30.14 in 10.0 mi NW 5.8 mph - N/A   Clear
8:53 AM 61.0 °F 45.0 °F 56% 30.13 in 10.0 mi WNW 6.9 mph - N/A   Clear
9:53 AM 66.9 °F 46.0 °F 47% 30.11 in 10.0 mi NW 5.8 mph - N/A   Clear
10:53 AM 71.1 °F 46.0 °F 41% 30.09 in 10.0 mi NW 8.1 mph - N/A   Clear
11:53 AM 73.9 °F 48.0 °F 40% 30.07 in 10.0 mi West 10.4 mph - N/A   Clear
12:53 PM 81.0 °F 34.0 °F 18% 30.04 in 10.0 mi East 9.2 mph 17.3 mph N/A   Clear
1:53 PM 81.0 °F 32.0 °F 17% 30.01 in 10.0 mi East 17.3 mph 24.2 mph N/A   Clear
2:53 PM 82.0 °F 32.0 °F 16% 29.98 in 10.0 mi East 16.1 mph 24.2 mph N/A   Clear
3:53 PM 82.9 °F 30.0 °F 15% 29.96 in 10.0 mi East 13.8 mph 20.7 mph N/A   Clear
4:53 PM 84.0 °F 30.0 °F 14% 29.94 in 10.0 mi ENE 15.0 mph 24.2 mph N/A   Clear
5:53 PM 82.0 °F 28.9 °F 14% 29.92 in 10.0 mi East 16.1 mph 20.7 mph N/A   Clear
6:53 PM 81.0 °F 28.9 °F 15% 29.91 in 10.0 mi East 11.5 mph 18.4 mph N/A   Clear
7:53 PM 79.0 °F 28.9 °F 16% 29.91 in 10.0 mi East 10.4 mph - N/A   Clear
8:53 PM 75.9 °F 28.9 °F 18% 29.92 in 10.0 mi East 8.1 mph - N/A   Clear
9:53 PM 73.0 °F 30.0 °F 20% 29.93 in 10.0 mi ENE 4.6 mph - N/A   Clear
10:53 PM 69.1 °F 32.0 °F 25% 29.92 in 10.0 mi Calm Calm - N/A   Clear
11:53 PM 69.1 °F 32.0 °F 25% 29.91 in 10.0 mi Calm Calm - N/A   Clear